Torna al catalogo

ANNA 1B

AttivoScienzaLEO
NORAD 446·PAYLOAD·🇺🇸 United States

Lanciato Oct 31, 1962 da Cape Canaveral Space Force Station

Loading…

Prossimi Passaggi (prossime 24 ore)

TLE

AggiornatoSource: Space-Track

Epoca: Sep 14, 2026, 15:44 UTC

1 00446U 62060A   26257.65565916 -.00000109  00000-0  31941-4 0  9996
2 00446  50.1434  31.7825 0069975 281.0091  91.8394 13.35366128115667

Traccia ANNA 1B in tempo reale con AllMySat

Download on the App Store